Погода Жосалы

Погода Жосалы : погода сейчас, прогноз погоды и архив. Всё, что Вы хотите узнать о погоде Жосалы!

Хотите узнать прогноз погоды Жосалы? Тогда Вам сюда: Погода Жосалы

Поиск расширенной информации на нашем сайте:

Другие новости

Новости СМИ2

Главная страница сайта

Новости сайта

02.10.2013

Напоминаем, что на нашем новом сайте вы можете получить высокодетализированные прогнозы погоды по пунктам России, СНГ и мира (включающие важные для авиации метеовеличины, такие как направление и скорость ветра, видимость, явления погоды, количество и форма облачности, нижняя и верхняя граница облачности), а также ознакомиться с разнообразными материалами по авиационной метеорологии и подборкой полезных ссылок на эту тему.

Сайт Метеоцентр.Азия посвящён разработке технологий оптимизации авиаметеорологического обслуживания, включая проектирование и перспективное создание нескольких автоматизированных авиаметеорологических систем:
- система выпуска высокодетальных прогностических карт явлений погоды для нижнего воздушного пространства по России и ближнему зарубежью;
- система верификации прогнозов TAF (выпускаемых синоптиками официальных АМСГ РФ и ближнего зарубежья) и AUTOTAF (выпускаемых сайтом Метеоцентр.Азия) - выявление ошибок, онлайн-сопоставление с фактической погодой METAR, автоматическое внесение коррективов в прогнозы при резком отклонении фактической погоды от прогноза, подсчёт оправдываемости прогнозов по элементам и в целом;
- система обработки, анализа и отображения авиаметеорологической информации для применения провайдерами метеорологической информации.

Рекомендуем: http://vdsperm.ru/ где купить проволока в пермь.

Погода Жосалы - сегодня

Время (UTC), дата Ветер
(°,м/с) 
Видим.   Явления Облачность Т
(°С)
Тd
(°С)
f(%) Тe
(°С)
Pmin
(гПа)
dP
(гПа)
Po
(мм)
O2
(г/м3)
Тmin Tmax R s Состояние
почвы
09 23.04.17 270 (З) 20000 м    ясно 
+17.7 +0.6 32 +18  1023.1  0.1  758  287           
12 23.04.17 270 (З) 20000 м    ясно 
+18.8 +0.2 29 +19  1022.8  -0.3  758  286           
15 23.04.17 320 (СЗ) 20000 м    8/0 верхняя 
[Ci]
+16.2 +4 44 +18  1026.9  758  288    +18.8       
18 23.04.17 340 (С) н/о    ясно 
+12.4 +4.5 59 +14  1023.4  0.3  758  292    +18.8       
21 23.04.17 020 (С) н/о    ясно 
+10.7 +3.4 61 +10  1023  -0.4  758  293           
00 24.04.17 070 (В) н/о    3/0 верхняя 
[Ci]
+7.8 +1.9 66 +7  1022.1  -1  757  296           
03 24.04.17 090 (В) 20000 м    3/0 верхняя 
[Ci]
+11.5 +3 56 +10  1021.5  -0.5  757  292           
06 24.04.17 090 (В) 20000 м    3/0 верхняя 
[Ci fib]
+19.6 +2.3 32 +19  1019.8  -1.3  756  284  +6.6         
09 24.04.17 110 (В) 20000 м    ясно 
+25.4 +4.8 27 +25  1017.5  -2  754  277           
12 24.04.17 110 (В) 20000 м    ясно 
+28.1 +5.5 24 +28  1015.4  -2  753  274           
15 24.04.17 090 (В) 20000 м    4/0 верхняя 
[Ci]
+24.1 +10.2 41 +25  1014.8  -0.8  752  277    +28.5       
18 24.04.17 090 (В) н/о    ясно 
+19.4 +8.9 51 +20  1015.7  0.7  753  282    +28.5       
21 24.04.17 090 (В) н/о    ясно 
+17.8 +8.8 56 +19  1015  -0.7  752  283           
00 25.04.17 140 (ЮВ) н/о    3/0 верхняя 
[Ci]
+14.4 +8.6 68 +16  1014.8  -0.4  752  286           
03 25.04.17 090 (В) 20000 м    4/0 верхняя 
[Ci]
+13.5 +8.9 74 +15  1015  0.2  752  287           
06 25.04.17 140 (ЮВ) 20000 м    8/0 верхняя 
[Ci]
+25.4 +9.9 38 +26  1014.2  -0.3  752  275  +13.5         
09 25.04.17 140 (ЮВ) 20000 м    9/0 верхняя 
[Ci sp]
+28.2 +5.3 23 +28  1013.7  -0.4  752  274           
12 25.04.17 тихо ()   20000 м    8/0 верхняя 
[Ci]
+29.5 +5.1 21 +30  1013.1  -0.5  751  272           
15 25.04.17 тихо ()   20000 м    8/0 верхняя 
[Ci]
+26.4 +10.9 38 +29  1013.7  0.4  751  274    +30.1       
18 25.04.17 270 (З) н/о    ясно 
+20.2 +10.4 53 +22  1015.6  1.6  753  281    +30.1       
21 25.04.17 290 (З) н/о    ясно 
+17.8 +10.3 61 +19  1015.8  0.2  753  283           
00 26.04.17 290 (З) н/о    3/0 средняя 
[Ac trans]
+15.3 +10.2 72 +17  1016.4  0.5  753  286           
03 26.04.17 320 (СЗ) 20000 м    4/0 верхняя 
[Ci sp]
+15.8 +10.2 69 +16  1018.8  2.4  755  286           
06 26.04.17 320 (СЗ) 12-15{15}  20000 м  пыльный позёмок  8/0 верхняя 
[Ci sp]
+21.2 +6.1 37 +21  1020.2  1.6  756  282  +14.7         
09 26.04.17 290 (З) 15-20{20}  4000 м  пыльная буря  9/0 средняя, верхняя 
[Ac cast|Ci sp]
+21.5 +1.7 27 +22  1021.3  1.1  757  283           
Время (UTC), дата Ветер
(°,м/с) 
Видим.   Явления Облачность Т
(°С)
Тd
(°С)
f(%) Тe
(°С)
Pmin
(гПа)
dP
(гПа)
Po
(мм)
O2
(г/м3)
Тmin Tmax R s Состояние
почвы

Для получения пояснительной информации подведите курсор к названию столбца.

ПОГОДА Жосалы - архив

Всё, что Вы хотите узнать о погоде Жосалы - удобно и подробно!

Выберите нужную дату (начиная с 1 января 2015* года) и нажмите кнопку "Найти".
Будут отображены архивные сводки погоды по пункту Жосалы, начиная с указанной даты.


Отображать данные в формате CSV (для использования в таблицах Excel)


Внимание! Наш архив погоды предназначен исключительно для личного некоммерческого использования в познавательных целях. Если Вам необходимы официальные справки о состоянии погоды (для производственных, юридических, коммерческих и т.п. целей), обращайтесь в органы Росгидромета.

*Примечание: данная дата относится к архиву по метеостанциям СССР (Россия, СНГ, Балтия).
Архив по метеостанциям Зарубежной Европы и Азии (кроме Китая) хранится 10 дней, по другим регионам земного шара (Китай, Африка, Америка, Австралия, Океания) - 1 день.

Жосалы - район местоположения метеостанции


Название, широта, долгота, высота метеостанции:
Жосалы (Джусалы) 45.5°ш. 64.1°д. 103 м над ур. моря [Казахстан]

Дополнительная информация

В oтличие oт бoльшинства пoгoдных сайтoв мы публикуем пoдрoбную метеoинфoрмацию в детальнoм прoфессиoнальнoм фoрмате.

Характеристики температуры и влажнoсти вoздуха измеряются на высoте 2 м в тени вдали oт зданий и деревьев.
Скoрoсть ветра измеряется на высoте 10 м (на урoвне рoста челoвека скoрoсть ветра ниже в 1.5-2 раза). Если метеoстанция нахoдится в гoрoде или в лесу, тo скoрoсть ветра занижена на 2-4 м/с пo сравнению с oткрытым местoм. Скoрoсть ветра над акватoриями крупных рек и oзёр, а также на вершинах хoлмoв на 2-5 м/с выше, чем в oбычных услoвиях.
Атмoсфернoе давление в разных тoчках местнoсти мoжет значительнo oтличаться oт давления на метеoстанции, в зависимoсти oт услoвий рельефа (при пoдъёме на 10 м давление пoнижается примернo на 1 мм рт.ст.).